Weather Roundup
Issued by NWS Springfield, MO

Home | Current Version | Previous Version | Text Only | Print | Product List | Glossary On
Versions: 1 2 3 4 5 6 7 8 9 10 11 12 13 14 15 16 17 18 19 20 21 22 23 24 25 26 27 28 29 30 31 32 33 34 35 36 37 38 39 40 41 42 43 44 45 46 47 48 49 50
000
NZUS99 KSGF 251907
HRRSGF

HOURLY WEATHER
NATIONAL WEATHER SERVICE SPRINGFIELD MO
100 PM CST SUN JAN 25 2015

......SGF CWA......

CITY           SKY/WX    TMP DP  RH WIND       PRES   REMARKS
SPRINGFIELD    LGT RAIN  38  34  85 NW22G29   29.77R FOG     WCI  27
JOPLIN         CLOUDY    42  31  64 NW20G29   29.86R
WEST PLAINS    CLOUDY    45  37  73 W14G24    29.67R
ROLLA          CLOUDY    41  37  86 W14G26    29.63S
OSAGE BEACH    CLOUDY    39  36  87 W7        29.71R WCI  34
BRANSON        LGT RAIN  39  37  93 NW15G21   29.77R FOG     WCI  31

......SURROUNDING SGF CWA......

CITY           SKY/WX    TMP DP  RH WIND       PRES   REMARKS
CHANUTE        CLOUDY    45  32  60 NW20G32   29.90R
PARSONS        CLOUDY    46  33  60 NW25G32   29.91R
COFFEYVILLE    CLOUDY    48  32  53 N23G30    29.91R
EMPORIA        CLOUDY    44  31  60 N21G37    29.92R
GROVE OK       CLOUDY    46  32  57 NW15G24   29.88R
ROGERS AR      CLOUDY    43  32  65 NW17G28   29.82R
SILOAM SPRINGS CLOUDY    45  30  57 NW18G33   29.86R
HARRISON AR    LGT RAIN  41  37  86 NW17G35   29.76R
NEAR YELLVILLE CLOUDY    45  36  70 NW15G24   29.74R

......KANSAS AND MISSOURI......

CITY           SKY/WX    TMP DP  RH WIND       PRES   REMARKS
KANSAS CTY INT CLOUDY    38  34  85 N23G30    29.84R WCI  27
DOWNTOWN KC    CLOUDY    40  34  79 N15G28    29.84R WCI  32
COLUMBIA       CLOUDY    39  39 100 W14G23    29.66R FOG     WCI  31
SEDALIA        LGT RAIN  38  34  85 NW20G25   29.74R FOG     WCI  28
ST JOSEPH      CLOUDY    38  34  85 N23G31    29.89R WCI  27
ST LOUIS       LGT RAIN  47  43  86 W12       29.59S FOG
SPIRIT OF STL  CLOUDY    45  42  89 W10       29.59F
KIRKSVILLE     LGT SNOW  35  33  92 N21G31    29.77R FOG     WCI  24
WICHITA        PTSUNNY   51  29  42 NW31G39   29.99R
TOPEKA         CLOUDY    40  32  73 N18G32    29.92R WCI  31
OLATHE         CLOUDY    38  34  85 N24G32    29.83R WCI  27

......TENNESSEE......

CITY           SKY/WX    TMP DP  RH WIND       PRES   REMARKS
MEMPHIS        MOSUNNY   53  41  63 SW14G21   29.69F
NASHVILLE      CLOUDY    56  36  47 SW16G22   29.65F

......ARKANSAS.......

CITY           SKY/WX    TMP DP  RH WIND       PRES   REMARKS
FAYETTEVILLE   CLOUDY    44  34  67 NW15G25   29.83R
FT SMITH       CLOUDY    53  33  46 NW21G33   29.85S
LITTLE ROCK    PTSUNNY   60  32  34 NW17G33   29.74R

......OKLAHOMA.......

CITY           SKY/WX    TMP DP  RH WIND       PRES   REMARKS
TULSA          CLOUDY    52  32  46 NW26G36   29.91R
PONCA CITY     PTSUNNY   56  28  34 NW26G36   29.98F
MCALESTER      LGT RAIN  58  32  37 NW24      29.93F
OKLAHOMA CITY  MOSUNNY   57  26  30 N29G41    30.00F

......IOWA............

CITY           SKY/WX    TMP DP  RH WIND       PRES   REMARKS
DES MOINES     CLOUDY    34  29  82 NE12      29.92S WCI  25
QUAD CITIES    LGT SNOW  30  25  81 NE18G30   29.82R WCI  18

......ILLINOIS........

CITY           SKY/WX    TMP DP  RH WIND       PRES   REMARKS
QUINCY         LGT SNOW  34  32  92 NE17      29.69R FOG     WCI  23
CHICAGO        LGT SNOW  29  25  85 NE22G32   29.81S FOG     WCI  15



USA.gov is the U.S. government's official web portal to all federal, state and local government web resources and services.